Location: ??????
(55.2000°N, 38.3000°E)
Time: 01:48:19
(UTC+00:00)

COSMOS 2455 - Pass Details

Date: 15 November 2025
Orbit: 898 x 910 km, 67.1° (Epoch: 12 December)

Event Time Altitude Azimuth Distance (km) Brightness Sun altitude
Exits shadow 02:29:13 26° 322° (NW) 1,738 4.0 -21.1°
Maximum altitude 02:30:47 29° 347° (NNW) 1,626 4.0 -20.9°
Drops below altitude 10° 02:35:59 10° 46° (NE) 2,608 5.8 -20.1°
Sets 02:38:52 0° 58° (ENE) 3,550 6.8 -19.7°
